Regional Weather Roundup
Issued by NWS

Home | Current Version | Previous Version | Graphics & Text | Print | Product List | Glossary On
Versions: 1 2 3 4 5 6 7 8 9 10 11 12 13 14 15 16 17 18 19 20 21 22 23 24 25 26 27 28 29 30 31 32 33 34 35 36 37 38 39 40 41 42 43 44 45 46 47 48 49 50
624
ASUS43 KFSD 050110
RWRSD

WEATHER ROUNDUP FOR SOUTH DAKOTA
NATIONAL WEATHER SERVICE SIOUX FALLS SD
800 PM CDT WED MAY 04 2016

NOTE: "FAIR" INDICATES FEW OR NO CLOUDS BELOW 12,000 FEET WITH NO
SIGNIFICANT WEATHER AND/OR OBSTRUCTIONS TO VISIBILITY.


SDZ001>005-009-010-012>017-050200-
NORTHWEST AND NORTH CENTRAL SOUTH DAKOTA

CITY           SKY/WX    TMP DP  RH WIND       PRES   REMARKS
BUFFALO          N/A     74  41  30 S15       29.92F
FAITH            N/A     69  46  43 S10       30.00F
MOBRIDGE       CLEAR     71  48  43 SE8       29.97F
$$

SDZ012>016-024>037-041>051-057-063-072>074-050200-
SOUTHWEST AND SOUTH CENTRAL SOUTH DAKOTA

CITY           SKY/WX    TMP DP  RH WIND       PRES   REMARKS
RAPID CTY ARPT CLEAR     68  45  43 SE9       30.01F
PIERRE         CLEAR     71  48  43 CALM      30.00F
CUSTER         CLEAR     65  34  31 SE9       30.12F
ELLSWORTH AFB  CLEAR     71  43  36 SE10      30.01F
PHILIP         CLEAR     71  47  42 S8        30.01F
PINE RIDGE     CLEAR     72  40  31 SE7       30.04F
WINNER         FAIR      70  42  36 CALM      30.04F
$$

SDZ004>011-016>023-039-040-050200-
NORTHEAST SOUTH DAKOTA

CITY           SKY/WX    TMP DP  RH WIND       PRES   REMARKS
ABERDEEN       CLEAR     72  36  26 N3        29.99F
WATERTOWN      CLEAR     61  36  39 N8        30.00F
SISSETON         N/A     65  31  28 N6        29.98S
$$

SDZ017-020-022-023-036>040-048>070-050200-
SOUTHEAST SOUTH DAKOTA

CITY           SKY/WX    TMP DP  RH WIND       PRES   REMARKS
SIOUX FALLS    PTCLDY    61  34  36 N8        29.99S
HURON          CLEAR     66  44  45 NW6       30.00F
CHAMBERLAIN    CLEAR     70  44  38 CALM      30.03S
MITCHELL       CLEAR     66  40  38 NW5       30.01F
YANKTON        CLEAR     63  39  42 NW8       30.01F
$$

ABBREVIATIONS USED IN REMARKS
   TC - TEMPERATURE IN CELSIUS
  WCI - WIND CHILL INDEX
   HX - HEAT INDEX
  VSB - VISIBILITY





USA.gov is the U.S. government's official web portal to all federal, state and local government web resources and services.